CW9703 Weather Reports


Display with metric or nautical units.
time (UTC)temp
F
wind
direction
speed
MPH
gust
MPH
rain 1hr
in
rain 24hr
in
rain mn
in
humidity
%
barometer
mb
20180716075542 73 155 0.0 0.0 0.00 0.00 0.00 95 1011.0
20180716074448 74 155 0.0 0.0 0.00 0.00 0.00 95 1011.0
20180716064939 75 155 0.0 2.0 0.00 0.00 0.00 95 1011.2
20180716063838 75 155 0.0 2.0 0.00 0.00 0.00 94 1011.4
20180716060528 76 153 3.0 3.0 0.00 0.00 0.00 94 1011.7
20180716054328 75 103 0.0 0.0 0.00 0.00 0.00 93 1011.8
20180716045934 75 103 0.0 0.0 0.00 0.00 0.00 92 1012.1
20180716041526 75 101 0.0 0.0 0.00 0.00 0.00 87 1012.2
20180716035326 76 101 0.0 0.0 0.00 0.00 0.00 86 1012.2
20180716030926 76 101 0.0 1.0 0.00 0.00 0.00 85 1012.4
20180716024726 75 99 4.0 4.0 0.00 0.00 0.00 87 1012.4
20180716011934 75 88 0.0 0.0 0.00 0.00 0.00 76 1012.1
20180716010826 75 89 0.0 0.0 0.00 0.00 0.00 75 1012.0
20180716002424 76 101 5.0 8.0 0.00 0.00 0.00 82 1012.2
20180716000223 77 103 7.0 8.0 0.00 0.00 0.00 78 1012.2
20180715234023 77 102 6.0 7.0 0.00 0.00 0.00 78 1012.4
20180715232337 78 108 6.0 6.0 0.00 0.00 0.00 75 1012.4
20180715223422 76 97 5.0 7.0 0.00 0.00 0.00 81 1012.6
20180715215031 76 100 6.0 6.0 0.00 0.00 0.00 80 1013.3
20180715213921 76 107 6.0 7.0 0.00 0.00 0.00 85 1013.5
20180715203321 75 105 7.0 8.0 0.00 0.00 0.00 90 1013.8
20180715201120 75 113 7.0 9.0 0.00 0.00 0.00 90 1014.0
20180715192730 75 121 6.0 8.0 0.00 0.00 0.00 92 1014.3
20180715191630 75 112 6.0 7.0 0.00 0.00 0.00 92 1014.4
20180715184319 75 119 7.0 8.0 0.00 0.00 0.00 93 1014.5
20180715182119 74 111 6.0 8.0 0.00 0.00 0.00 94 1014.6
20180715170418 75 127 4.0 6.0 0.00 0.00 0.00 93 1014.9
20180715162017 75 120 3.0 4.0 0.00 0.00 0.00 92 1014.9
20180715155817 75 124 3.0 4.0 0.00 0.00 0.00 92 1014.9
20180715153617 75 128 3.0 5.0 0.00 0.00 0.00 93 1015.0
20180715151416 75 142 3.0 4.0 0.00 0.00 0.00 92 1014.9
20180715143016 74 130 3.0 5.0 0.00 0.01 0.00 93 1015.0
20180715135715 74 153 0.0 0.0 0.00 0.22 0.00 93 1015.1
20180715133515 74 144 0.0 0.0 0.00 0.22 0.00 92 1015.0
20180715131325 75 76 0.0 0.0 0.00 0.26 0.00 96 1015.1
20180715130215 73 73 0.0 0.0 0.00 0.26 0.00 98 1015.1
20180715120715 69 76 0.0 0.0 0.00 0.31 0.00 98 1015.1
20180715114514 68 76 0.0 0.0 0.00 0.31 0.00 98 1015.3
20180715110113 67 76 0.0 0.0 0.00 0.31 0.00 98 1015.3
20180715103913 67 76 0.0 0.0 0.00 0.31 0.00 97 1015.1
20180715101712 67 76 0.0 0.0 0.00 0.31 0.00 98 1015.0
20180715095517 67 76 0.0 0.0 0.00 0.31 0.00 97 1015.1
20180715084911 68 130 0.0 0.0 0.00 0.31 0.00 97 1015.3